CAPE
957 931 766 680 467 197 42 73 0 0 5 1 0 5 20 27 34 53 40 46 80 153 94 70 74 64 70 56 55 75 64 47 39 26 19 0 0 2 0 10 10 9 6
893 976 791 776 505 237 21 0 0 0 0 2 0 0 2 24 31 58 35 32 52 115 117 96 80 38 27 27 32 73 62 37 42 25 10 0 0 2 7 7 7 4 3
925 903 901 692 553 301 42 94 0 0 6 14 3 4 0 9 28 48 47 34 14 61 105 99 27 4 8 45 26 65 46 42 37 22 6 1 5 6 1 0 0 6 1
940 816 822 790 546 315 128 120 70 0 5 28 4 1 0 8 21 26 26 30 24 21 23 35 66 37 54 36 32 69 49 46 39 15 2 4 5 5 7 0 0 0 0
966 757 695 715 636 338 121 110 93 41 4 20 3 0 9 27 32 20 8 12 23 27 3 35 69 83 69 43 60 69 35 31 24 14 4 6 5 5 8 0 0 0 0
982 898 681 622 586 440 225 112 73 69 3 0 3 0 6 7 11 32 12 8 20 14 14 47 37 43 49 83 80 62 27 3 1 10 7 4 9 7 7 0 0 0 0
605 748 740 666 641 460 342 242 72 140 53 0 0 0 5 7 15 2 17 21 14 3 23 50 51 13 39 81 99 82 30 8 0 8 11 6 3 9 8 0 0 0 0
403 461 509 591 527 479 399 343 151 102 31 29 4 1 0 0 18 13 15 15 12 15 26 35 54 41 26 25 24 57 40 23 3 3 1 7 9 8 7 6 0 0 0
455 395 326 402 479 431 438 350 103 39 41 25 15 9 3 0 0 3 11 6 13 13 20 33 41 47 27 30 44 33 4 41 18 11 1 0 5 7 6 7 5 0 0
341 340 299 289 291 261 443 380 272 133 66 14 19 17 15 2 1 0 0 0 0 0 0 5 29 32 34 24 38 48 32 32 17 27 20 6 0 8 9 10 8 2 0
305 364 338 280 262 226 271 272 161 22 99 37 84 19 6 1 5 0 7 0 0 0 0 0 0 0 27 28 34 37 39 32 24 26 39 26 1 8 16 14 11 8 0
168 423 398 332 212 153 177 246 194 161 79 31 39 29 32 3 87 22 3 0 0 0 0 0 0 0 0 0 19 39 30 22 45 22 57 63 43 0 21 18 14 8 0
138 322 395 271 136 98 71 219 247 111 90 59 49 47 34 28 29 1 13 9 0 1 0 0 0 0 0 0 0 5 6 9 29 37 57 81 65 58 22 16 17 10 4
148 129 301 155 113 136 226 156 219 175 156 100 62 67 47 42 3 0 0 0 2 0 0 0 0 0 0 0 0 0 0 0 0 37 36 87 88 88 69 28 2 1 0
121 216 242 145 148 578 592 582 233 169 135 91 117 139 58 57 33 48 9 1 2 0 0 0 0 2 0 0 0 0 2 3 1 0 0 23 33 44 62 50 26 1 0
220 117 217 129 99 286 549 496 568 361 439 280 202 177 94 74 55 64 21 46 16 15 3 0 0 0 1 1 0 0 0 0 4 1 0 3 0 6 25 46 21 4 0
150 164 98 140 361 444 340 477 543 349 332 231 179 283 98 74 44 50 5 42 10 23 0 5 2 0 0 0 0 2 4 12 4 4 15 9 4 0 0 10 14 8 0
75 163 141 183 159 166 399 408 326 298 184 185 109 140 132 82 76 40 20 0 21 15 19 0 11 8 2 1 10 17 17 20 21 4 4 0 8 7 10 4 0 0 0
41 94 91 97 142 145 123 131 189 247 163 12 129 149 84 31 58 36 0 6 3 12 8 29 28 24 17 14 16 24 9 6 4 6 2 6 3 14 11 9 2 0 0
28 30 14 57 53 104 100 104 110 70 57 165 141 100 77 29 15 22 10 0 5 10 16 33 25 24 9 29 27 11 2 0 0 12 7 15 15 18 15 6 5 3 0
0 5 2 53 48 66 87 58 32 17 17 12 13 12 16 17 12 3 5 8 8 4 3 8 38 28 14 27 16 33 26 25 4 4 0 1 0 6 4 13 2 4 3
18 0 0 3 9 15 24 14 7 5 7 10 25 13 12 13 15 22 19 17 11 6 22 16 10 0 0 2 5 11 13 2 1 9 0 0 0 1 2 0 0 7 10
2 5 0 1 2 0 1 1 0 2 5 8 5 2 7 18 15 22 31 10 10 14 0 18 21 14 4 11 7 0 6 0 0 5 29 4 0 0 3 0 5 3 0
0 0 0 0 0 0 2 23 0 1 7 12 6 8 16 8 9 21 20 16 10 16 11 10 15 28 23 5 15 17 31 11 0 6 23 0 3 0 2 0 10 5 0
0 0 0 0 0 1 8 11 4 1 0 5 7 13 1 10 5 6 13 2 10 14 3 0 0 0 0 11 17 16 2 1 0 3 7 2 0 8 0 1 2 14 2
0 0 0 0 0 0 0 0 0 0 0 0 0 0 0 0 0 2 2 0 0 0 0 0 0 0 0 0 9 7 7 0 0 0 8 0 18 0 0 0 2 0 0
CIN
-7 0 -1 0 -4 -26 -65 -35 -6 0 -10 -13 0 -12 -18 -18 -23 -34 -16 -9 -160 -208 -111 0 0 -4 -1 -1 -7 -2 0 -1 -1 -4 -4 0 0 0 0 0 0 0 0
-20 -1 -5 -1 -14 -30 -79 0 0 0 0 -32 0 0 -4 -24 -12 -22 -32 -20 -14 -42 -224 -1 0 -8 -11 -9 -5 -3 0 -2 0 0 0 0 0 0 0 0 0 0 0
-28 -23 -7 -12 -22 -26 -73 -8 0 0 -14 -21 -1 -1 0 -92 -41 -19 -27 -50 -43 -10 -23 -2 -1 0 -8 -1 -3 0 0 -4 0 0 0 0 0 0 0 0 0 0 0
-31 -32 -20 -13 -30 -29 -23 -13 -11 -1 -3 -10 0 -2 0 -66 -58 -16 -34 -35 -29 -21 -27 -15 -2 -13 -6 -5 0 0 -3 -3 -1 -2 0 0 0 0 0 0 0 0 0
-30 -30 -28 -24 -20 -27 -37 -46 -21 -28 -1 -4 0 0 -26 -38 -21 -26 0 -28 -18 -9 0 -45 -18 -17 -14 -2 0 0 -7 -7 -4 0 -1 0 0 0 0 0 0 0 0
-27 -19 -22 -24 -20 -15 -23 -16 -25 -27 -2 0 0 0 -6 -10 0 -35 -18 0 -15 -37 -32 -22 -9 -8 -26 -3 0 0 -1 -5 -2 0 0 0 0 0 0 0 0 0 0
-54 -19 -13 -18 -11 -13 -12 -14 -6 -1 0 0 0 0 0 -29 -34 -1 -41 -38 -43 0 -42 -23 -16 0 -11 -17 -3 -2 -3 -24 0 0 0 0 0 0 0 0 0 0 0
-77 -46 -37 -23 -15 -10 -2 0 -7 -2 -7 0 0 0 0 0 -29 -12 -33 -42 -54 -46 -46 -36 -11 -12 -18 -29 -18 -13 -1 -13 -19 0 0 0 0 0 0 0 0 0 0
-74 -71 -51 -31 -18 -14 -4 0 -3 -11 -3 -1 -1 -1 0 0 0 -5 -16 -30 -45 -46 -34 -27 -29 -13 -24 -38 -31 -27 0 -8 -22 -9 0 0 0 0 0 0 0 0 0
-64 -77 -60 -37 -24 -25 -9 -1 0 -2 -1 -1 -6 -1 0 0 -1 0 0 0 0 0 0 -21 -25 -21 -18 -21 -17 -13 -12 -6 -4 -8 -9 0 0 0 0 0 0 0 0
-27 -42 -59 -60 -28 -18 -22 -14 -9 -4 -1 -1 -2 -7 -12 -1 -2 -1 -1 -1 0 0 0 0 0 0 -18 -14 -18 -10 -6 -8 -11 -5 -2 -2 -1 0 0 0 0 0 0
-4 -5 -27 -36 -40 -26 -17 -15 -15 -3 -4 -3 -11 -6 0 -5 -1 -1 -4 -1 0 0 0 0 0 0 0 0 -12 -8 -5 -27 -2 -6 0 0 0 0 0 0 0 0 0
0 0 -14 -34 -50 -57 -36 -14 -12 -15 -5 0 -1 -2 -1 -3 -2 0 -1 0 0 0 0 0 0 0 0 0 0 -6 -17 -11 -16 -5 0 0 0 0 -3 0 0 0 0
0 -12 -28 -47 -75 -50 -14 -21 -13 -14 -5 0 0 0 -1 0 0 0 0 0 -1 0 0 0 0 0 0 0 0 0 0 0 -2 -16 -3 0 -1 -2 -2 -1 0 0 0
0 -4 -29 -20 -35 -1 0 0 -7 -6 -4 -2 0 0 0 0 -12 -3 -1 0 0 0 0 0 0 -4 0 0 0 0 -1 0 -2 -1 0 -21 -25 -25 -13 -5 -1 -1 0
0 0 -12 -26 -44 -8 -2 0 0 0 0 0 0 -1 0 0 -3 -2 -5 0 0 0 -1 0 0 0 -8 -4 -1 0 0 0 0 -1 0 -1 0 -8 -32 -16 -15 -10 0
-1 0 -6 -22 -6 -1 -2 0 0 -1 0 0 0 -2 0 0 0 -2 -29 0 0 0 0 -1 0 0 0 0 -5 -13 -8 -4 -2 -7 -4 -3 -1 -2 0 -28 -25 -9 0
-1 -4 0 -8 -27 -5 0 0 -1 0 0 0 0 0 0 0 0 -1 -1 0 0 -1 -1 0 -7 -12 -26 -21 -9 -14 -4 -4 -3 -16 -8 0 -2 -1 -1 -1 0 0 0
-5 0 -16 0 -15 0 -4 0 0 -1 -1 -3 0 0 0 -4 0 0 0 -6 -4 -3 -1 0 -3 -10 -13 -1 -5 -19 0 -15 -15 -15 -13 -12 -11 -4 -5 -6 -1 -1 0
-1 -9 -11 -4 -36 0 -4 -2 -4 -4 -1 0 0 0 0 -5 -4 -5 -3 -2 -9 -11 -2 0 -1 -3 -5 -2 0 -8 -16 0 0 -1 -19 -5 -5 -1 0 -1 -2 0 0
0 -1 -6 -1 -1 0 0 -1 -9 -11 -9 -7 0 0 0 -1 -2 -12 -16 -3 -4 -5 -5 -4 -2 0 -3 -4 -14 -11 -13 -13 -25 -17 -5 -2 0 -4 -1 -1 0 -3 -2
-4 0 0 0 -1 0 -1 -11 -4 -1 -3 -1 0 -1 -9 -2 -1 0 0 -8 0 -1 -3 -7 -9 0 0 -12 -45 -39 -26 0 0 -46 -1 0 -1 -5 -14 0 0 -3 0
-37 -14 -1 0 -1 0 0 -1 0 -1 0 -1 0 0 0 -3 -5 -7 -1 -8 -22 -37 0 -29 -24 -25 -8 -12 0 0 0 0 0 -9 -1 -1 -2 0 -2 -1 0 0 -3
0 0 0 0 0 0 0 -1 -1 -1 0 -2 -11 0 -2 0 -3 -1 -5 -4 -1 -32 -34 -16 -22 -2 0 0 0 -1 0 0 -1 -1 0 0 0 -2 -2 0 -2 0 -1
0 0 0 0 0 -1 -2 -3 0 0 0 0 0 0 -3 0 0 -5 -1 0 -24 -27 -5 0 0 0 0 0 0 0 0 0 0 0 0 -1 0 -2 0 0 -1 0 -2
0 0 0 0 0 0 0 0 0 0 0 0 0 0 -4 0 0 0 -4 -1 0 0 0 0 0 0 0 0 0 0 0 0 0 0 0 0 0 0 0 0 0 0 0
Wind_Speed
37 36 35 36 39 41 nan nan nan nan nan nan nan nan nan nan nan nan nan nan nan 30 nan nan nan nan nan nan nan nan nan nan nan nan nan nan nan nan nan nan nan nan nan
38 38 36 36 37 39 nan nan nan nan nan nan nan nan nan nan nan nan nan nan nan 31 32 nan nan nan nan nan nan nan nan nan nan nan nan nan nan nan nan nan nan nan nan
39 39 39 38 37 40 nan nan nan nan nan nan nan nan nan nan nan nan nan nan nan nan 30 nan nan nan nan nan nan nan nan nan nan nan nan nan nan nan nan nan nan nan nan
34 38 41 39 40 41 40 41 nan nan nan nan nan nan nan nan nan nan nan nan nan nan nan nan nan nan nan nan nan nan nan nan nan nan nan nan nan nan nan nan nan nan nan
37 37 38 39 44 42 41 41 nan nan nan nan nan nan nan nan nan nan nan nan nan nan nan nan nan nan nan nan nan nan nan nan nan nan nan nan nan nan nan nan nan nan nan
44 40 40 41 43 45 44 43 nan nan nan nan nan nan nan nan nan nan nan nan nan nan nan nan nan nan nan nan nan nan nan nan nan nan nan nan nan nan nan nan nan nan nan
48 46 44 42 43 43 42 44 nan 44 nan nan nan nan nan nan nan nan nan nan nan nan nan nan nan nan nan nan nan nan nan nan nan nan nan nan nan nan nan nan nan nan nan
55 52 49 46 43 45 44 45 45 46 nan nan nan nan nan nan nan nan nan nan nan nan nan nan nan nan nan nan nan nan nan nan nan nan nan nan nan nan nan nan nan nan nan
61 57 53 53 49 48 46 46 46 nan nan nan nan nan nan nan nan nan nan nan nan nan nan nan nan nan nan nan nan nan nan nan nan nan nan nan nan nan nan nan nan nan nan
64 59 59 56 55 53 49 46 47 45 nan nan nan nan nan nan nan nan nan nan nan nan nan nan nan nan nan nan nan nan nan nan nan nan nan nan nan nan nan nan nan nan nan
67 65 63 61 58 55 52 50 48 nan nan nan nan nan nan nan nan nan nan nan nan nan nan nan nan nan nan nan nan nan nan nan nan nan nan nan nan nan nan nan nan nan nan
71 66 65 65 61 58 54 54 50 48 nan nan nan nan nan nan nan nan nan nan nan nan nan nan nan nan nan nan nan nan nan nan nan nan nan nan nan nan nan nan nan nan nan
73 67 67 65 66 nan nan 58 58 51 nan nan nan nan nan nan nan nan nan nan nan nan nan nan nan nan nan nan nan nan nan nan nan nan nan nan nan nan nan nan nan nan nan
68 64 63 65 65 61 58 58 59 59 56 54 nan nan nan nan nan nan nan nan nan nan nan nan nan nan nan nan nan nan nan nan nan nan nan nan nan nan nan nan nan nan nan
68 57 58 59 58 59 58 60 60 59 60 nan 54 54 nan nan nan nan nan nan nan nan nan nan nan nan nan nan nan nan nan nan nan nan nan nan nan nan nan nan nan nan nan
74 57 55 56 nan 59 60 61 63 60 61 60 57 56 nan nan nan nan nan nan nan nan nan nan nan nan nan nan nan nan nan nan nan nan nan nan nan nan nan nan nan nan nan
80 71 nan 59 58 63 66 66 65 65 64 62 60 56 nan nan nan nan nan nan nan nan nan nan nan nan nan nan nan nan nan nan nan nan nan nan nan nan nan nan nan nan nan
nan 76 73 68 68 71 72 68 67 64 64 63 59 57 55 nan nan nan nan nan nan nan nan nan nan nan nan nan nan nan nan nan nan nan nan nan nan nan nan nan nan nan nan
nan nan nan nan 74 71 76 70 65 65 62 nan 57 56 nan nan nan nan nan nan nan nan nan nan nan nan nan nan nan nan nan nan nan nan nan nan nan nan nan nan nan nan nan
nan nan nan nan nan 67 75 69 65 nan nan 56 57 55 nan nan nan nan nan nan nan nan nan nan nan nan nan nan nan nan nan nan nan nan nan nan nan nan nan nan nan nan nan
nan nan nan nan nan nan nan nan nan nan nan nan nan nan nan nan nan nan nan nan nan nan nan nan nan nan nan nan nan nan nan nan nan nan nan nan nan nan nan nan nan nan nan
nan nan nan nan nan nan nan nan nan nan nan nan nan nan nan nan nan nan nan nan nan nan nan nan nan nan nan nan nan nan nan nan nan nan nan nan nan nan nan nan nan nan nan
nan nan nan nan nan nan nan nan nan nan nan nan nan nan nan nan nan nan nan nan nan nan nan nan nan nan nan nan nan nan nan nan nan nan nan nan nan nan nan nan nan nan nan
nan nan nan nan nan nan nan nan nan nan nan nan nan nan nan nan nan nan nan nan nan nan nan nan nan nan nan nan nan nan nan nan nan nan nan nan nan nan nan nan nan nan nan
nan nan nan nan nan nan nan nan nan nan nan nan nan nan nan nan nan nan nan nan nan nan nan nan nan nan nan nan nan nan nan nan nan nan nan nan nan nan nan nan nan nan nan
nan nan nan nan nan nan nan nan nan nan nan nan nan nan nan nan nan nan nan nan nan nan nan nan nan nan nan nan nan nan nan nan nan nan nan nan nan nan nan nan nan nan nan
Wind_Direction
250 247 247 245 243 241 nan nan nan nan nan nan nan nan nan nan nan nan nan nan nan 258 nan nan nan nan nan nan nan nan nan nan nan nan nan nan nan nan nan nan nan nan nan
245 246 246 245 243 245 nan nan nan nan nan nan nan nan nan nan nan nan nan nan nan 260 265 nan nan nan nan nan nan nan nan nan nan nan nan nan nan nan nan nan nan nan nan
248 245 241 242 243 244 nan nan nan nan nan nan nan nan nan nan nan nan nan nan nan nan 254 nan nan nan nan nan nan nan nan nan nan nan nan nan nan nan nan nan nan nan nan
248 247 244 240 242 242 246 248 nan nan nan nan nan nan nan nan nan nan nan nan nan nan nan nan nan nan nan nan nan nan nan nan nan nan nan nan nan nan nan nan nan nan nan
249 247 245 243 243 241 244 243 nan nan nan nan nan nan nan nan nan nan nan nan nan nan nan nan nan nan nan nan nan nan nan nan nan nan nan nan nan nan nan nan nan nan nan
249 248 245 245 247 242 239 243 nan nan nan nan nan nan nan nan nan nan nan nan nan nan nan nan nan nan nan nan nan nan nan nan nan nan nan nan nan nan nan nan nan nan nan
248 248 246 249 250 250 249 249 nan 246 nan nan nan nan nan nan nan nan nan nan nan nan nan nan nan nan nan nan nan nan nan nan nan nan nan nan nan nan nan nan nan nan nan
249 247 249 248 252 250 252 251 250 247 nan nan nan nan nan nan nan nan nan nan nan nan nan nan nan nan nan nan nan nan nan nan nan nan nan nan nan nan nan nan nan nan nan
245 248 248 249 251 251 251 254 255 nan nan nan nan nan nan nan nan nan nan nan nan nan nan nan nan nan nan nan nan nan nan nan nan nan nan nan nan nan nan nan nan nan nan
244 249 252 250 251 249 252 253 254 252 nan nan nan nan nan nan nan nan nan nan nan nan nan nan nan nan nan nan nan nan nan nan nan nan nan nan nan nan nan nan nan nan nan
241 247 249 252 250 249 252 255 253 nan nan nan nan nan nan nan nan nan nan nan nan nan nan nan nan nan nan nan nan nan nan nan nan nan nan nan nan nan nan nan nan nan nan
241 244 248 248 249 250 250 251 252 252 nan nan nan nan nan nan nan nan nan nan nan nan nan nan nan nan nan nan nan nan nan nan nan nan nan nan nan nan nan nan nan nan nan
241 243 246 244 245 nan nan 248 249 250 nan nan nan nan nan nan nan nan nan nan nan nan nan nan nan nan nan nan nan nan nan nan nan nan nan nan nan nan nan nan nan nan nan
241 242 244 243 246 248 247 249 246 246 251 249 nan nan nan nan nan nan nan nan nan nan nan nan nan nan nan nan nan nan nan nan nan nan nan nan nan nan nan nan nan nan nan
231 244 246 245 247 246 247 247 244 248 249 nan 246 245 nan nan nan nan nan nan nan nan nan nan nan nan nan nan nan nan nan nan nan nan nan nan nan nan nan nan nan nan nan
219 237 242 245 nan 246 246 245 243 244 246 246 244 244 nan nan nan nan nan nan nan nan nan nan nan nan nan nan nan nan nan nan nan nan nan nan nan nan nan nan nan nan nan
214 219 nan 244 245 245 243 244 245 245 246 247 245 244 nan nan nan nan nan nan nan nan nan nan nan nan nan nan nan nan nan nan nan nan nan nan nan nan nan nan nan nan nan
nan 212 220 237 239 240 241 242 244 245 245 245 245 244 243 nan nan nan nan nan nan nan nan nan nan nan nan nan nan nan nan nan nan nan nan nan nan nan nan nan nan nan nan
nan nan nan nan 235 239 240 238 239 240 240 nan 243 244 nan nan nan nan nan nan nan nan nan nan nan nan nan nan nan nan nan nan nan nan nan nan nan nan nan nan nan nan nan
nan nan nan nan nan 235 234 233 234 nan nan 239 241 240 nan nan nan nan nan nan nan nan nan nan nan nan nan nan nan nan nan nan nan nan nan nan nan nan nan nan nan nan nan
nan nan nan nan nan nan nan nan nan nan nan nan nan nan nan nan nan nan nan nan nan nan nan nan nan nan nan nan nan nan nan nan nan nan nan nan nan nan nan nan nan nan nan
nan nan nan nan nan nan nan nan nan nan nan nan nan nan nan nan nan nan nan nan nan nan nan nan nan nan nan nan nan nan nan nan nan nan nan nan nan nan nan nan nan nan nan
nan nan nan nan nan nan nan nan nan nan nan nan nan nan nan nan nan nan nan nan nan nan nan nan nan nan nan nan nan nan nan nan nan nan nan nan nan nan nan nan nan nan nan
nan nan nan nan nan nan nan nan nan nan nan nan nan nan nan nan nan nan nan nan nan nan nan nan nan nan nan nan nan nan nan nan nan nan nan nan nan nan nan nan nan nan nan
nan nan nan nan nan nan nan nan nan nan nan nan nan nan nan nan nan nan nan nan nan nan nan nan nan nan nan nan nan nan nan nan nan nan nan nan nan nan nan nan nan nan nan
nan nan nan nan nan nan nan nan nan nan nan nan nan nan nan nan nan nan nan nan nan nan nan nan nan nan nan nan nan nan nan nan nan nan nan nan nan nan nan nan nan nan nan